Miscellaneous Local Product
Issued by NWS Hastings, NE

Home | Current Version | Previous Version | Text Only | Print | Product List | Glossary Off
Versions: 1 2 3 4 5 6 7 8 9 10 11 12 13 14 15 16 17 18 19 20 21 22 23 24 25 26 27 28 29 30 31 32 33 34 35 36 37 38 39 40 41 42 43 44 45 46 47 48 49 50

000
AXUS43 KGID 270202
MISGRI

GID CWA HOURLY WEATHER ROUNDUP
NATIONAL WEATHER SERVICE HASTINGS NE
900 PM CDT MON SEP 26 2016

NOTE: "FAIR" INDICATES FEW OR NO CLOUDS BELOW 12,000 FEET WITH NO
SIGNIFICANT WEATHER AND/OR OBSTRUCTIONS TO VISIBILITY.

...SOUTH CENTRAL NEBRASKA...

CITY           SKY/WX    TMP DP  RH WIND       PRES   REMARKS
GRAND ISLAND   CLEAR     59  43  55 NW3       30.14R
HASTINGS       CLEAR     61  42  49 CALM      30.15R
KEARNEY        CLEAR     63  39  42 CALM      30.15R
ORD            CLEAR     52  43  71 CALM      30.12S
YORK           PTCLDY    57  45  62 NW3       30.13R
AURORA         CLEAR     57  46  67 NW5       30.13R
LEXINGTON      CLEAR     60  43  53 CALM      30.16S
HOLDREGE       CLEAR     59  43  55 CALM      30.16S
HEBRON         PTCLDY    61  43  51 CALM      30.12S

...NEBRASKA PANHANDLE...

CITY           SKY/WX    TMP DP  RH WIND       PRES   REMARKS
CHADRON        CLEAR     62  42  47 N5        30.23R
ALLIANCE       CLEAR     58  41  53 NW5       30.24R
SCOTTSBLUFF    CLEAR     57  45  64 NE8       30.26R
SIDNEY         LGT RAIN  55  38  52 NW5       30.28R

...WESTERN AND NORTH CENTRAL NEBRASKA...

CITY           SKY/WX    TMP DP  RH WIND       PRES   REMARKS
VALENTINE      CLEAR     56  38  50 W7        30.16R
AINSWORTH      CLEAR     56  43  61 W5        30.15S
ONEILL         CLEAR     57  41  55 SW5       30.12S
BROKEN BOW     CLEAR     49  41  74 CALM      30.15S
IMPERIAL       CLEAR     62  41  46 CALM      30.22R
NORTH PLATTE   CLEAR     56  46  69 CALM      30.18R
MCCOOK         CLEAR     60  42  51 CALM      30.18R

...EASTERN NEBRASKA...

CITY           SKY/WX    TMP DP  RH WIND       PRES   REMARKS
NORFOLK        CLEAR     54  42  64 W6        30.10S
SO SIOUX CITY  CLEAR     56  46  69 W8        30.06S
TEKAMAH        CLEAR     55  45  68 CALM      30.07S
COLUMBUS       CLEAR    N/A N/A N/A NW5       30.11S
ALBION         CLEAR     54  44  68 CALM      30.12S
OMAHA EPPLEY   CLEAR     59  50  72 NW6       30.08R
MILLARD        CLEAR     60  49  69 CALM      30.08R
LINCOLN        CLEAR     59  46  62 N3        30.11R
NEBRASKA CITY  CLEAR     61  35  38 SW7       30.09R
BEATRICE       CLEAR     61  45  55 SW5       30.11R
FALLS CITY     CLEAR     60  49  66 SW8       30.08S

...NORTHERN KANSAS...

CITY           SKY/WX    TMP DP  RH WIND       PRES   REMARKS
GOODLAND       CLEAR     58  40  51 CALM      30.24R
HILL CITY      CLEAR     56  50  80 SW3       30.18R
NORTON         CLEAR     57  39  51 SW6       30.16S
PHILLIPSBURG   CLEAR     63  46  55 SW5       30.15S
SMITH CENTER   CLEAR     59  45  58 S7        30.15S
HAYS           CLEAR     61  39  44 SE6       30.17S
RUSSELL        CLEAR     59  46  62 S7        30.16R
CONCORDIA      CLEAR     62  44  51 S9        30.13S
SALINA         CLEAR     60  49  66 S6        30.16R
TOPEKA         CLEAR     59  51  75 SW3       30.13S



USA.gov is the U.S. government's official web portal to all federal, state and local government web resources and services.